Location: Chuathbaluk
(61.5726°N, 159.2454°W)
Time: 03:53:47
(UTC+00:00)

Transit 4A - Pass Details

Date: 03 December 2020
Orbit: 864 x 980 km, 66.8° (Epoch: 26 January)

Event Time Altitude Azimuth Distance (km) Brightness Sun altitude
Rises 03:34:29 0° 311° (NW) 3,689 11.4 -13.4°
Reaches altitude 10° 03:38:00 10° 293° (WNW) 2,727 11.0 -13.8°
Maximum altitude 03:41:50 17° 255° (WSW) 2,240 11.1 -14.2°
Drops below altitude 10° 03:45:38 10° 217° (SW) 2,681 11.2 -14.6°
Sets 03:49:04 0° 199° (SSW) 3,600 11.5 -15.0°
